When you browse on this site, cookies collect data to enhance your experience and personalize the content and advertising you see.
Visit our Privacy Policy to learn more. By continuing to use the site, you agree to this use of cookies and data.
  • In Österreich
  • Länderverzeichnis
  • Für 7 Tage
  • Wassertemperatur
  • Satellitenkarten
  • Wetterkarte
  • News
  • Widgets
  • user-avatar
    Anmelden

    Stündliche Wetter Makadi Bey

    Heute, 18 November, Sonntag

    Zeit Temperatur Niederschläge Wind Luftdruck Luftfeuchtigkeit
    00:00 +17°C° 0 mm 2 m/S 709 mmHg 51%
    01:00 +17°C° 0 mm 2 m/S 709 mmHg 49%
    02:00 +16°C° 0 mm 2 m/S 708 mmHg 47%
    03:00 +16°C° 0 mm 2 m/S 708 mmHg 43%
    04:00 +16°C° 0 mm 2 m/S 708 mmHg 40%
    05:00 +16°C° 0 mm 2 m/S 708 mmHg 37%
    06:00 +17°C° 0 mm 2 m/S 708 mmHg 32%
    07:00 +19°C° 0 mm 2 m/S 709 mmHg 27%
    08:00 +20°C° 0 mm 2 m/S 709 mmHg 22%
    09:00 +23°C° 0 mm 2 m/S 709 mmHg 22%
    10:00 +24°C° 0 mm 1 m/S 709 mmHg 21%
    11:00 +26°C° 0 mm 1 m/S 709 mmHg 20%
    12:00 +26°C° 0 mm 2 m/S 709 mmHg 20%
    13:00 +27°C° 0 mm 2 m/S 708 mmHg 21%
    14:00 +27°C° 0 mm 2 m/S 708 mmHg 22%
    15:00 +26°C° 0 mm 2 m/S 708 mmHg 24%
    16:00 +25°C° 0 mm 2 m/S 707 mmHg 27%
    17:00 +24°C° 0 mm 2 m/S 707 mmHg 29%
    18:00 +23°C° 0 mm 2 m/S 707 mmHg 31%
    19:00 +22°C° 0 mm 1 m/S 707 mmHg 34%
    20:00 +21°C° 0 mm 1 m/S 707 mmHg 36%
    21:00 +21°C° 0 mm 1 m/S 707 mmHg 36%
    22:00 +20°C° 0 mm 1 m/S 707 mmHg 36%
    23:00 +20°C° 0 mm 1 m/S 707 mmHg 36%

    Morgen, 19 November, Montag

    Zeit Temperatur Niederschläge Wind Luftdruck Luftfeuchtigkeit
    00:00 +19°C° 0 mm 1 m/S 707 mmHg 35%
    01:00 +19°C° 0 mm 1 m/S 706 mmHg 35%
    02:00 +19°C° 0 mm 1 m/S 706 mmHg 34%
    03:00 +18°C° 0 mm 1 m/S 706 mmHg 34%
    04:00 +18°C° 0 mm 1 m/S 706 mmHg 34%
    05:00 +16°C° 0 mm 1 m/S 706 mmHg 34%
    06:00 +19°C° 0 mm 1 m/S 707 mmHg 30%
    07:00 +20°C° 0 mm 1 m/S 708 mmHg 27%
    08:00 +22°C° 0 mm 1 m/S 708 mmHg 23%
    09:00 +23°C° 0 mm 2 m/S 709 mmHg 21%
    10:00 +25°C° 0 mm 2 m/S 709 mmHg 19%
    11:00 +26°C° 0 mm 3 m/S 709 mmHg 17%
    12:00 +26°C° 0 mm 3 m/S 709 mmHg 16%
    13:00 +27°C° 0 mm 3 m/S 708 mmHg 14%
    14:00 +27°C° 0 mm 4 m/S 708 mmHg 13%
    15:00 +26°C° 0 mm 3 m/S 708 mmHg 15%
    16:00 +25°C° 0 mm 3 m/S 708 mmHg 16%
    17:00 +24°C° 0 mm 3 m/S 708 mmHg 17%
    18:00 +22°C° 0 mm 3 m/S 708 mmHg 19%
    19:00 +21°C° 0 mm 2 m/S 708 mmHg 20%
    20:00 +20°C° 0 mm 2 m/S 709 mmHg 22%
    21:00 +19°C° 0 mm 2 m/S 709 mmHg 23%
    22:00 +19°C° 0 mm 2 m/S 709 mmHg 24%
    23:00 +18°C° 0 mm 2 m/S 709 mmHg 24%

    übermorgen, 20 November, Dienstag

    Zeit Temperatur Niederschläge Wind Luftdruck Luftfeuchtigkeit
    00:00 +17°C° 0 mm 2 m/S 708 mmHg 25%
    01:00 +17°C° 0 mm 2 m/S 708 mmHg 25%
    02:00 +16°C° 0 mm 1 m/S 708 mmHg 25%
    03:00 +16°C° 0 mm 1 m/S 708 mmHg 25%
    04:00 +16°C° 0 mm 1 m/S 708 mmHg 25%
    05:00 +15°C° 0 mm 1 m/S 708 mmHg 26%
    06:00 +18°C° 0 mm 1 m/S 709 mmHg 23%
    07:00 +19°C° 0 mm 2 m/S 709 mmHg 21%
    08:00 +21°C° 0 mm 2 m/S 710 mmHg 18%
    09:00 +23°C° 0 mm 2 m/S 710 mmHg 17%
    10:00 +25°C° 0 mm 2 m/S 710 mmHg 15%
    11:00 +26°C° 0 mm 2 m/S 711 mmHg 14%
    12:00 +27°C° 0 mm 3 m/S 710 mmHg 14%
    13:00 +27°C° 0 mm 3 m/S 710 mmHg 14%
    14:00 +28°C° 0 mm 3 m/S 709 mmHg 14%
    15:00 +26°C° 0 mm 3 m/S 709 mmHg 17%
    16:00 +25°C° 0 mm 3 m/S 709 mmHg 20%
    17:00 +24°C° 0 mm 2 m/S 709 mmHg 23%
    18:00 +23°C° 0 mm 2 m/S 709 mmHg 26%
    19:00 +21°C° 0 mm 2 m/S 709 mmHg 29%
    20:00 +20°C° 0 mm 2 m/S 709 mmHg 33%
    21:00 +20°C° 0 mm 2 m/S 709 mmHg 33%
    22:00 +19°C° 0 mm 2 m/S 709 mmHg 34%
    23:00 +18°C° 0 mm 2 m/S 709 mmHg 34%

    21 November, Mittwoch

    Zeit Temperatur Niederschläge Wind Luftdruck Luftfeuchtigkeit
    00:00 +18°C° 0 mm 2 m/S 708 mmHg 32%
    01:00 +18°C° 0 mm 2 m/S 708 mmHg 30%
    02:00 +18°C° 0 mm 2 m/S 708 mmHg 27%
    03:00 +17°C° 0 mm 2 m/S 708 mmHg 27%
    04:00 +17°C° 0 mm 2 m/S 708 mmHg 26%
    05:00 +17°C° 0 mm 2 m/S 708 mmHg 26%
    06:00 +18°C° 0 mm 2 m/S 708 mmHg 23%
    07:00 +20°C° 0 mm 2 m/S 709 mmHg 21%
    08:00 +23°C° 0 mm 2 m/S 709 mmHg 19%
    09:00 +24°C° 0 mm 2 m/S 709 mmHg 18%
    10:00 +25°C° 0 mm 2 m/S 709 mmHg 17%
    11:00 +27°C° 0 mm 2 m/S 709 mmHg 16%
    12:00 +27°C° 0 mm 2 m/S 709 mmHg 17%
    13:00 +28°C° 0 mm 2 m/S 708 mmHg 17%
    14:00 +28°C° 0 mm 2 m/S 708 mmHg 17%
    15:00 +27°C° 0 mm 2 m/S 708 mmHg 20%
    16:00 +26°C° 0 mm 2 m/S 708 mmHg 22%
    17:00 +24°C° 0 mm 2 m/S 707 mmHg 25%
    18:00 +24°C° 0 mm 2 m/S 708 mmHg 27%
    19:00 +23°C° 0 mm 2 m/S 708 mmHg 30%
    20:00 +21°C° 0 mm 2 m/S 708 mmHg 33%
    21:00 +20°C° 0 mm 2 m/S 708 mmHg 35%
    22:00 +21°C° 0 mm 1 m/S 707 mmHg 36%
    23:00 +20°C° 0 mm 1 m/S 707 mmHg 38%

    22 November, Donnerstag

    Zeit Temperatur Niederschläge Wind Luftdruck Luftfeuchtigkeit
    00:00 +20°C° 0 mm 1 m/S 707 mmHg 37%
    01:00 +19°C° 0 mm 1 m/S 706 mmHg 37%
    02:00 +19°C° 0 mm 1 m/S 706 mmHg 37%
    03:00 +18°C° 0 mm 1 m/S 706 mmHg 36%
    04:00 +18°C° 0 mm 1 m/S 706 mmHg 36%
    05:00 +17°C° 0 mm 2 m/S 706 mmHg 35%
    06:00 +19°C° 0 mm 1 m/S 706 mmHg 32%
    07:00 +21°C° 0 mm 1 m/S 707 mmHg 28%
    08:00 +22°C° 0 mm 1 m/S 708 mmHg 24%
    09:00 +24°C° 0 mm 2 m/S 708 mmHg 21%
    10:00 +25°C° 0 mm 2 m/S 708 mmHg 18%
    11:00 +27°C° 0 mm 2 m/S 708 mmHg 16%
    12:00 +27°C° 0 mm 2 m/S 707 mmHg 15%
    13:00 +28°C° 0 mm 3 m/S 707 mmHg 14%
    14:00 +29°C° 0 mm 3 m/S 707 mmHg 13%
    15:00 +28°C° 0 mm 3 m/S 707 mmHg 15%
    16:00 +27°C° 0 mm 3 m/S 707 mmHg 18%
    17:00 +25°C° 0 mm 3 m/S 707 mmHg 20%
    18:00 +25°C° 0 mm 2 m/S 707 mmHg 23%
    19:00 +24°C° 0 mm 2 m/S 707 mmHg 25%
    20:00 +23°C° 0 mm 2 m/S 707 mmHg 28%
    21:00 +21°C° 0 mm 2 m/S 707 mmHg 29%
    22:00 +21°C° 0 mm 2 m/S 707 mmHg 30%
    23:00 +20°C° 0 mm 2 m/S 707 mmHg 31%

    23 November, Freitag

    Zeit Temperatur Niederschläge Wind Luftdruck Luftfeuchtigkeit
    00:00 +20°C° 0 mm 2 m/S 707 mmHg 32%
    01:00 +19°C° 0 mm 2 m/S 706 mmHg 34%
    02:00 +19°C° 0 mm 2 m/S 706 mmHg 35%
    03:00 +18°C° 0 mm 2 m/S 706 mmHg 37%
    04:00 +18°C° 0 mm 2 m/S 706 mmHg 39%
    05:00 +17°C° 0 mm 2 m/S 706 mmHg 40%
    06:00 +18°C° 0 mm 2 m/S 707 mmHg 38%
    07:00 +19°C° 0 mm 2 m/S 707 mmHg 37%
    08:00 +20°C° 0 mm 2 m/S 708 mmHg 35%
    09:00 +21°C° 0 mm 3 m/S 708 mmHg 31%
    10:00 +23°C° 0 mm 4 m/S 708 mmHg 27%
    11:00 +25°C° 0 mm 4 m/S 708 mmHg 22%
    12:00 +25°C° 0 mm 5 m/S 708 mmHg 21%
    13:00 +25°C° 0 mm 5 m/S 707 mmHg 20%
    14:00 +26°C° 0 mm 5 m/S 707 mmHg 18%
    15:00 +25°C° 0 mm 5 m/S 707 mmHg 21%
    16:00 +23°C° 0 mm 5 m/S 707 mmHg 23%
    17:00 +22°C° 0 mm 5 m/S 707 mmHg 25%
    18:00 +21°C° 0 mm 4 m/S 707 mmHg 30%
    19:00 +19°C° 0 mm 4 m/S 707 mmHg 34%
    20:00 +18°C° 0 mm 3 m/S 707 mmHg 39%
    21:00 +18°C° 0 mm 3 m/S 707 mmHg 42%
    22:00 +17°C° 0 mm 3 m/S 707 mmHg 45%
    23:00 +17°C° 0 mm 3 m/S 707 mmHg 48%
    Mehr zeigen